CTLRVL-WX Weather Reports


Display with metric or nautical units.
time (UTC)temp
F
wind
direction
speed
MPH
gust
MPH
rain 1hr
in
rain 24hr
in
rain mn
in
humidity
%
barometer
mb
20260509061603 46 176 8.0 0.0 0.00 0.00 0.00 49 980.6
20260509060149 46 169 7.0 0.0 0.00 0.00 0.00 49 980.6
20260509054603 46 167 7.0 0.0 0.00 0.00 0.00 45 981.9
20260509053118 46 163 6.0 0.0 0.00 0.00 0.00 49 981.4
20260509051601 46 163 7.0 0.0 0.00 0.00 0.00 49 981.4
20260509050135 46 167 7.0 0.0 0.00 0.00 0.00 49 981.4
20260509044602 46 167 6.0 0.0 0.00 0.00 0.00 42 982.4
20260509043118 46 171 6.0 0.0 0.00 0.00 0.00 44 981.1
20260509041602 48 171 7.0 0.0 0.00 0.00 0.00 44 981.1
20260509040139 48 170 7.0 0.0 0.00 0.00 0.00 44 981.1
20260509034602 48 168 7.0 0.0 0.00 0.00 0.00 44 981.8
20260509033117 48 176 6.0 0.0 0.00 0.00 0.00 41 982.5
20260509031602 49 172 6.0 0.0 0.00 0.00 0.00 41 982.6
20260509030135 49 165 6.0 0.0 0.00 0.00 0.00 41 982.6
20260509024601 49 159 6.0 0.0 0.00 0.00 0.00 35 982.9
20260509023119 50 165 6.0 0.0 0.00 0.00 0.00 35 982.8
20260509021602 50 176 6.0 0.0 0.00 0.00 0.00 35 982.8
20260509020131 51 178 6.0 0.0 0.00 0.00 0.00 35 982.8
20260509014601 52 186 6.0 0.0 0.00 0.00 0.00 34 982.9
20260509013115 53 196 4.0 0.0 0.00 0.00 0.00 34 982.9
20260509011601 54 193 4.0 0.0 0.00 0.00 0.00 34 982.9
20260509010129 55 214 3.0 0.0 0.00 0.00 0.00 34 982.9
20260509004559 56 228 3.0 0.0 0.00 0.00 0.00 30 982.6
20260509003118 56 241 4.0 0.0 0.00 0.00 0.00 28 983.9
20260509001559 57 254 3.0 0.0 0.00 0.00 0.00 28 983.9
20260509000142 58 258 4.0 0.0 0.00 0.00 0.00 28 983.9
20260508234602 59 259 5.0 0.0 0.00 0.00 0.00 23 983.2
20260508233121 60 262 7.0 0.0 0.00 0.00 0.00 22 983.7
20260508231604 60 260 7.0 0.0 0.00 0.00 0.00 22 983.7
20260508230127 60 267 8.0 0.0 0.00 0.00 0.00 22 983.7
20260508224603 60 267 8.0 0.0 0.00 0.00 0.00 22 983.8
20260508223121 61 267 9.0 0.0 0.00 0.00 0.00 21 984.7
20260508221604 60 266 10.0 0.0 0.00 0.00 0.00 21 984.7
20260508220129 61 265 10.0 0.0 0.00 0.00 0.00 21 984.7
20260508214604 61 265 11.0 0.0 0.00 0.00 0.00 21 985.3
20260508213121 61 264 11.0 0.0 0.00 0.00 0.00 22 984.6
20260508211604 62 258 10.0 0.0 0.00 0.00 0.00 22 984.6
20260508210133 62 258 10.0 0.0 0.00 0.00 0.00 22 984.6
20260508204604 62 256 10.0 0.0 0.00 0.00 0.00 24 984.8
20260508203122 62 253 11.0 0.0 0.00 0.00 0.00 21 984.5
20260508201604 62 251 9.0 0.0 0.00 0.00 0.00 21 984.6
20260508200129 62 249 10.0 0.0 0.00 0.00 0.00 21 984.6
20260508194604 62 247 9.0 0.0 0.00 0.00 0.00 19 984.7
20260508193118 62 247 10.0 0.0 0.00 0.00 0.00 19 984.7
20260508191603 62 255 9.0 0.0 0.00 0.00 0.00 19 984.8
20260508190127 62 255 9.0 0.0 0.00 0.00 0.00 19 984.8
20260508184603 62 255 9.0 0.0 0.00 0.00 0.00 21 985.2
20260508183123 62 249 9.0 0.0 0.00 0.00 0.00 22 984.8
20260508181603 62 251 10.0 0.0 0.00 0.00 0.00 22 984.8
20260508180134 62 250 10.0 0.0 0.00 0.00 0.00 22 984.8
20260508174604 61 244 10.0 0.0 0.00 0.00 0.00 31 985.9
20260508173122 61 251 11.0 0.0 0.00 0.00 0.00 31 985.9
20260508171603 60 242 9.0 0.0 0.00 0.00 0.00 31 985.9
20260508170129 60 245 9.0 0.0 0.00 0.00 0.00 31 985.9
20260508164603 59 246 9.0 0.0 0.00 0.00 0.00 36 986.3
20260508163122 59 240 9.0 0.0 0.00 0.00 0.00 36 986.4
20260508161603 57 233 8.0 0.0 0.00 0.00 0.00 36 986.3
20260508160134 57 230 8.0 0.0 0.00 0.00 0.00 36 986.3
20260508154604 56 223 7.0 0.0 0.00 0.00 0.00 49 987.4
20260508153124 55 209 7.0 0.0 0.00 0.00 0.00 47 986.2
20260508151603 54 198 7.0 0.0 0.00 0.00 0.00 47 986.2
20260508150134 53 196 7.0 0.0 0.00 0.00 0.00 47 986.2
20260508144604 53 194 6.0 0.0 0.00 0.00 0.00 61 986.4
20260508143121 52 194 6.0 0.0 0.00 0.00 0.00 58 986.6
20260508141604 51 189 5.0 0.0 0.00 0.00 0.00 58 986.6
20260508140142 50 185 4.0 0.0 0.00 0.00 0.00 60 986.4
20260508134604 49 185 4.0 0.0 0.00 0.00 0.00 69 986.4
20260508133118 47 189 5.0 0.0 0.00 0.00 0.00 69 986.4
20260508131603 46 187 5.0 0.0 0.00 0.00 0.00 69 986.4
20260508130138 45 186 6.0 0.0 0.00 0.00 0.00 69 986.4
20260508124604 43 184 5.0 0.0 0.00 0.00 0.00 80 985.8
20260508123122 43 193 5.0 0.0 0.00 0.00 0.00 81 986.3
20260508121603 41 188 3.0 0.0 0.00 0.00 0.00 81 986.3
20260508120151 39 167 2.0 0.0 0.00 0.00 0.00 81 986.3
20260508114603 37 156 2.0 0.0 0.00 0.00 0.00 77 985.9
20260508113125 36 153 2.0 0.0 0.00 0.00 0.00 83 986.4
20260508111603 36 137 3.0 0.0 0.00 0.00 0.00 83 986.5
20260508110129 35 137 4.0 0.0 0.00 0.00 0.00 83 986.5
20260508104605 35 137 4.0 0.0 0.00 0.00 0.00 79 985.6
20260508103123 35 120 3.0 0.0 0.00 0.00 0.00 75 986.5
20260508101606 36 120 3.0 0.0 0.00 0.00 0.00 75 986.5
20260508100130 36 126 3.0 0.0 0.00 0.00 0.00 75 986.5
20260508094605 36 127 3.0 0.0 0.00 0.00 0.00 76 985.9
20260508093119 37 129 2.0 0.0 0.00 0.00 0.00 78 986.5
20260508091605 37 155 3.0 0.0 0.00 0.00 0.00 78 986.6
20260508090134 37 159 4.0 0.0 0.00 0.00 0.00 78 986.6
20260508084605 37 162 4.0 0.0 0.00 0.00 0.00 84 986.2
20260508083123 37 167 3.0 0.0 0.00 0.00 0.00 73 985.8
20260508081604 38 166 4.0 0.0 0.00 0.00 0.00 73 985.8
20260508080136 38 156 4.0 0.0 0.00 0.00 0.00 73 985.8
20260508074606 39 155 4.0 0.0 0.00 0.00 0.00 64 986.7
20260508073124 39 159 5.0 0.0 0.00 0.00 0.00 64 986.7
20260508071604 39 169 4.0 0.0 0.00 0.00 0.00 64 986.7
20260508070136 39 172 4.0 0.0 0.00 0.00 0.00 64 986.7
20260508064604 40 166 4.0 0.0 0.00 0.00 0.00 58 986.5
20260508063120 40 174 4.0 0.0 0.00 0.00 0.00 61 986.8